User: anonymous   Login
Location: Banios
(43.0451°N, 0.2335°E)
Time: 00:35:17
(UTC+00:00)
Language:

deb Chang Zheng 4 - Orbit

View from above orbital plane
View from above orbital plane
View from above satellite
View from above satellite

Ground track
Ground track

The orbit data is extracted from the following two-line orbital elements,

1 20847U 90081K   21104.53685105  .00002594  00000-0  30431-3 0  9994
2 20847  98.5765 103.3183 0014107 266.6193  93.3406 14.85896110612713
Epoch (UTC): 14 April 2021 12:53:03
Eccentricity: 0.0014107
inclination: 98.5765°
perigee height: 601 km
apogee height: 620 km
right ascension of ascending node: 103.3183°
argument of perigee: 266.6193°
revolutions per day: 14.85896110
mean anomaly at epoch: 93.3406°
orbit number at epoch: 61271

The dashed part of the orbit path shows where the satellite is in the earth's shadow,  

DLR